DFSTH EDFM-EDDS

Flight info

Callsign DFSTH
Flight time 0h 36m
Altitude 15000
Route RINEX3W RINEX N850 KRH T128 BADSO BADSO2A
Aircraft PC12/L-SDFGRWY/S

Departure

Time 2026-05-07 14:11
Airport Mannheim-City Airport (EDFM)

Arrival

Time 2026-05-07 14:47
Airport Stuttgart Airport (EDDS)
Time Latitude Longitude Altitude Speed Heading
2026-05-07 14:01 49.47562 8.52057 316 ft 0 kts 182°
2026-05-07 14:07 49.47560 8.52056 316 ft 2 kts 182°
2026-05-07 14:08 49.47539 8.52065 316 ft 3 kts 120°
2026-05-07 14:08 49.47539 8.52118 316 ft 8 kts 91°
2026-05-07 14:08 49.47507 8.52170 316 ft 9 kts 185°
2026-05-07 14:08 49.47437 8.52164 316 ft 11 kts 182°
2026-05-07 14:09 49.47359 8.52157 317 ft 12 kts 183°
2026-05-07 14:09 49.47276 8.52151 317 ft 9 kts 183°
2026-05-07 14:09 49.47240 8.52118 317 ft 6 kts 281°
2026-05-07 14:09 49.47248 8.52085 317 ft 2 kts 276°
2026-05-07 14:10 49.47262 8.51766 315 ft 57 kts 287°
2026-05-07 14:10 49.47290 8.51011 377 ft 80 kts 277°
2026-05-07 14:10 49.47330 8.50097 512 ft 96 kts 277°
2026-05-07 14:10 49.47385 8.49014 757 ft 105 kts 277°
2026-05-07 14:11 49.47264 8.47889 1045 ft 112 kts 257°
2026-05-07 14:11 49.47042 8.46661 1337 ft 124 kts 259°
2026-05-07 14:11 49.46812 8.45295 1631 ft 142 kts 259°
2026-05-07 14:11 49.46542 8.43710 1904 ft 164 kts 258°
2026-05-07 14:12 49.46236 8.41922 2165 ft 181 kts 259°
2026-05-07 14:12 49.45779 8.40054 2397 ft 193 kts 242°
2026-05-07 14:12 49.44796 8.38560 2601 ft 208 kts 215°
2026-05-07 14:12 49.43431 8.37726 2819 ft 214 kts 200°
2026-05-07 14:13 49.41995 8.37087 3131 ft 215 kts 198°
2026-05-07 14:13 49.40537 8.36479 3371 ft 218 kts 199°
2026-05-07 14:13 49.39115 8.35829 3971 ft 201 kts 199°
2026-05-07 14:13 49.37764 8.35184 4309 ft 207 kts 201°
2026-05-07 14:14 49.36375 8.34576 4640 ft 209 kts 191°
2026-05-07 14:14 49.34948 8.34970 5015 ft 214 kts 153°
2026-05-07 14:14 49.33869 8.36527 5376 ft 215 kts 128°
2026-05-07 14:14 49.32998 8.38406 5728 ft 217 kts 126°
2026-05-07 14:15 49.32102 8.40268 6089 ft 217 kts 125°
2026-05-07 14:15 49.31502 8.42397 6440 ft 220 kts 103°
2026-05-07 14:15 49.31426 8.44731 6778 ft 220 kts 83°
2026-05-07 14:15 49.31611 8.47045 7083 ft 223 kts 82°
2026-05-07 14:16 49.31799 8.49407 7411 ft 224 kts 82°
2026-05-07 14:16 49.31987 8.51786 7728 ft 226 kts 82°
2026-05-07 14:16 49.32178 8.54188 8054 ft 228 kts 82°
2026-05-07 14:16 49.32193 8.56614 8342 ft 230 kts 99°
2026-05-07 14:17 49.31677 8.58922 8681 ft 230 kts 120°
2026-05-07 14:17 49.30692 8.60835 9009 ft 229 kts 140°
2026-05-07 14:17 49.29356 8.62132 9339 ft 228 kts 160°
2026-05-07 14:17 49.27830 8.62676 9675 ft 225 kts 180°
2026-05-07 14:18 49.26276 8.62535 9979 ft 224 kts 189°
2026-05-07 14:18 49.24718 8.62285 10265 ft 226 kts 189°
2026-05-07 14:18 49.23151 8.62041 10581 ft 227 kts 188°
2026-05-07 14:18 49.21579 8.61799 10876 ft 228 kts 188°
2026-05-07 14:19 49.19981 8.61551 11028 ft 236 kts 188°
2026-05-07 14:19 49.18310 8.61290 11031 ft 246 kts 188°
2026-05-07 14:19 49.16579 8.61020 11034 ft 253 kts 188°
2026-05-07 14:19 49.14810 8.60747 11035 ft 257 kts 188°
2026-05-07 14:20 49.13020 8.60476 11036 ft 260 kts 188°
2026-05-07 14:20 49.11828 8.60299 11035 ft 261 kts 188°
2026-05-07 14:20 49.10020 8.60029 11036 ft 261 kts 188°
2026-05-07 14:20 49.08209 8.59757 11035 ft 262 kts 188°
2026-05-07 14:21 49.06390 8.59484 11036 ft 262 kts 188°
2026-05-07 14:21 49.03982 8.59123 11036 ft 263 kts 188°
2026-05-07 14:21 49.02165 8.58851 11035 ft 263 kts 188°
2026-05-07 14:21 49.00344 8.58579 11036 ft 263 kts 188°
2026-05-07 14:22 48.98519 8.58502 11030 ft 262 kts 178°
2026-05-07 14:22 48.97292 8.58659 11030 ft 263 kts 177°
2026-05-07 14:22 48.95506 8.58885 10954 ft 252 kts 177°
2026-05-07 14:22 48.93749 8.59088 10614 ft 252 kts 178°
2026-05-07 14:23 48.92008 8.59289 10312 ft 250 kts 178°
2026-05-07 14:23 48.90276 8.59495 10006 ft 249 kts 178°
2026-05-07 14:23 48.88579 8.59697 9686 ft 247 kts 178°
2026-05-07 14:23 48.86888 8.60166 9307 ft 249 kts 163°
2026-05-07 14:24 48.85362 8.61409 9038 ft 249 kts 144°
2026-05-07 14:24 48.84186 8.63257 9038 ft 240 kts 127°
2026-05-07 14:24 48.83444 8.65480 9034 ft 234 kts 109°
2026-05-07 14:24 48.83164 8.67878 9039 ft 232 kts 92°
2026-05-07 14:25 48.83335 8.70329 9041 ft 236 kts 78°
2026-05-07 14:25 48.83553 8.72005 9039 ft 242 kts 79°
2026-05-07 14:25 48.83981 8.75384 9042 ft 250 kts 79°
2026-05-07 14:25 48.84313 8.78007 9033 ft 256 kts 79°
2026-05-07 14:26 48.84653 8.80689 9034 ft 261 kts 79°
2026-05-07 14:26 48.84998 8.83405 9033 ft 262 kts 79°
2026-05-07 14:26 48.85339 8.86110 9026 ft 261 kts 79°
2026-05-07 14:26 48.85683 8.88813 9025 ft 261 kts 79°
2026-05-07 14:27 48.86028 8.91520 9020 ft 261 kts 79°
2026-05-07 14:27 48.86367 8.94215 9020 ft 260 kts 79°
2026-05-07 14:27 48.86704 8.96905 9016 ft 259 kts 79°
2026-05-07 14:27 48.87042 8.99598 9016 ft 260 kts 79°
2026-05-07 14:28 48.87379 9.02291 9005 ft 260 kts 79°
2026-05-07 14:28 48.87712 9.04963 8922 ft 256 kts 79°
2026-05-07 14:28 48.88043 9.07623 8671 ft 256 kts 79°
2026-05-07 14:28 48.88369 9.10243 8466 ft 255 kts 79°
2026-05-07 14:29 48.88697 9.12880 8288 ft 252 kts 79°
2026-05-07 14:29 48.89022 9.15505 8067 ft 253 kts 79°
2026-05-07 14:29 48.89348 9.18138 7862 ft 253 kts 79°
2026-05-07 14:29 48.89671 9.20755 7720 ft 251 kts 79°
2026-05-07 14:30 48.89993 9.23362 7513 ft 251 kts 79°
2026-05-07 14:30 48.90313 9.25962 7336 ft 250 kts 79°
2026-05-07 14:30 48.90631 9.28555 7167 ft 249 kts 79°
2026-05-07 14:30 48.90774 9.31166 6962 ft 249 kts 94°
2026-05-07 14:31 48.90393 9.33712 6815 ft 247 kts 112°
2026-05-07 14:31 48.89537 9.35946 6637 ft 245 kts 130°
2026-05-07 14:31 48.88311 9.37702 6473 ft 242 kts 144°
2026-05-07 14:31 48.87004 9.39282 6162 ft 236 kts 144°
2026-05-07 14:32 48.85713 9.40847 5482 ft 237 kts 142°
2026-05-07 14:32 48.84781 9.42885 5028 ft 233 kts 107°
2026-05-07 14:32 48.84774 9.45133 5029 ft 196 kts 71°
2026-05-07 14:32 48.85235 9.46917 5026 ft 170 kts 64°
2026-05-07 14:33 48.85681 9.48488 5015 ft 156 kts 64°
2026-05-07 14:33 48.86089 9.49934 5015 ft 147 kts 63°
2026-05-07 14:33 48.86482 9.51315 5014 ft 139 kts 63°
2026-05-07 14:33 48.86856 9.52639 5024 ft 135 kts 63°
2026-05-07 14:34 48.87112 9.54004 5027 ft 139 kts 95°
2026-05-07 14:34 48.86618 9.55195 5041 ft 136 kts 155°
2026-05-07 14:34 48.85737 9.55735 5036 ft 144 kts 165°
2026-05-07 14:34 48.84726 9.56283 5040 ft 164 kts 164°
2026-05-07 14:35 48.83592 9.56889 5032 ft 178 kts 164°
2026-05-07 14:35 48.82415 9.57493 5025 ft 178 kts 165°
2026-05-07 14:35 48.81245 9.58091 5023 ft 176 kts 165°
2026-05-07 14:35 48.80071 9.58294 5016 ft 167 kts 197°
2026-05-07 14:36 48.79106 9.57429 5013 ft 159 kts 223°
2026-05-07 14:36 48.78268 9.56397 4928 ft 150 kts 223°
2026-05-07 14:36 48.77495 9.55447 4917 ft 138 kts 224°
2026-05-07 14:36 48.76773 9.54574 4903 ft 128 kts 224°
2026-05-07 14:37 48.76100 9.53783 4854 ft 121 kts 223°
2026-05-07 14:37 48.74784 9.52191 4634 ft 120 kts 224°
2026-05-07 14:37 48.74132 9.51416 4503 ft 121 kts 224°
2026-05-07 14:38 48.73473 9.50615 4386 ft 122 kts 223°
2026-05-07 14:38 48.72797 9.49769 4383 ft 131 kts 224°
2026-05-07 14:38 48.72065 9.48849 4391 ft 142 kts 225°
2026-05-07 14:38 48.71276 9.47869 4380 ft 151 kts 223°
2026-05-07 14:39 48.70306 9.47193 4412 ft 163 kts 184°
2026-05-07 14:39 48.69244 9.47822 4450 ft 174 kts 136°
2026-05-07 14:39 48.68767 9.49476 4488 ft 176 kts 89°
2026-05-07 14:39 48.69165 9.51018 4557 ft 147 kts 37°
2026-05-07 14:40 48.69756 9.52165 4576 ft 136 kts 62°
2026-05-07 14:40 48.70116 9.53474 4491 ft 134 kts 64°
2026-05-07 14:40 48.70519 9.54720 4393 ft 130 kts 42°
2026-05-07 14:40 48.71291 9.55227 4271 ft 122 kts
2026-05-07 14:41 48.72131 9.55409 4174 ft 119 kts 353°
2026-05-07 14:41 48.72791 9.54848 4079 ft 110 kts 306°
2026-05-07 14:41 48.73252 9.53923 4024 ft 108 kts 304°
2026-05-07 14:41 48.73675 9.53038 4018 ft 102 kts 297°
2026-05-07 14:42 48.73933 9.52082 4017 ft 95 kts 288°
2026-05-07 14:42 48.74058 9.51151 4012 ft 86 kts 274°
2026-05-07 14:42 48.74078 9.50256 4032 ft 93 kts 262°
2026-05-07 14:42 48.73760 9.49228 4149 ft 125 kts 239°
2026-05-07 14:43 48.73200 9.47984 4266 ft 162 kts 237°
2026-05-07 14:43 48.72794 9.46293 4133 ft 177 kts 272°
2026-05-07 14:43 48.73037 9.44471 3926 ft 182 kts 278°
2026-05-07 14:43 48.72841 9.42532 3659 ft 192 kts 256°
2026-05-07 14:44 48.72470 9.40658 3404 ft 177 kts 256°
2026-05-07 14:44 48.72165 9.38994 3179 ft 158 kts 257°
2026-05-07 14:44 48.71872 9.37439 2978 ft 151 kts 257°
2026-05-07 14:44 48.71583 9.35918 2779 ft 149 kts 257°
2026-05-07 14:45 48.71299 9.34428 2583 ft 149 kts 258°
2026-05-07 14:45 48.71013 9.32920 2378 ft 149 kts 256°
2026-05-07 14:45 48.70734 9.31430 2177 ft 146 kts 257°
2026-05-07 14:45 48.70447 9.29950 1951 ft 145 kts 258°
2026-05-07 14:46 48.70185 9.28512 1744 ft 141 kts 257°
2026-05-07 14:46 48.69902 9.27158 1574 ft 129 kts 258°
2026-05-07 14:46 48.69684 9.25922 1428 ft 114 kts 257°
2026-05-07 14:46 48.69486 9.24867 1304 ft 93 kts 258°
2026-05-07 14:47 48.69334 9.24038 1199 ft 71 kts 260°
2026-05-07 14:47 48.69223 9.23439 1205 ft 49 kts 251°
2026-05-07 14:47 48.69144 9.23037 1213 ft 33 kts 256°
2026-05-07 14:47 48.69084 9.22708 1219 ft 31 kts 257°
2026-05-07 14:48 48.69110 9.22540 1222 ft 17 kts 339°
2026-05-07 14:48 48.69177 9.22513 1226 ft 0 kts 340°
2026-05-07 14:48 48.69179 9.22512 1226 ft 2 kts 339°
2026-05-07 14:48 48.69209 9.22461 1230 ft 11 kts 275°
2026-05-07 14:49 48.69185 9.22312 1234 ft 17 kts 253°
2026-05-07 14:49 48.69147 9.22118 1245 ft 23 kts 257°
2026-05-07 14:49 48.69101 9.21862 1251 ft 28 kts 256°
2026-05-07 14:49 48.69045 9.21576 1256 ft 28 kts 255°
2026-05-07 14:50 48.69011 9.21320 1257 ft 25 kts 281°
2026-05-07 14:50 48.69046 9.21122 1264 ft 12 kts 301°
2026-05-07 14:50 48.69141 9.21061 1267 ft 15 kts 347°
2026-05-07 14:50 48.69159 9.21106 1266 ft 7 kts 162°
2026-05-07 14:51 48.69153 9.21108 1266 ft 0 kts 167°